Time,TemperatureF,DewpointF,PressureIn,WindDirection,WindDirectionDegrees,WindSpeedMPH,WindSpeedGustMPH,Humidity,HourlyPrecipIn,Conditions,Clouds,dailyrainin,SoftwareType,DateUTC
2013-09-21 00:00:00,66.5,53.9,29.88,North,5,2.0,2.0,64,0.00,,,0.00,Wunderground v.1.15,2013-09-21 06:00:00,
2013-09-21 00:10:00,66.5,53.9,29.88,North,5,1.0,1.0,64,0.00,,,0.00,Wunderground v.1.15,2013-09-21 06:10:00,
2013-09-21 00:20:00,65.9,53.8,29.88,North,5,1.0,1.0,65,0.00,,,0.00,Wunderground v.1.15,2013-09-21 06:20:00,
2013-09-21 00:30:00,65.5,53.8,29.88,North,5,1.0,1.0,66,0.00,,,0.00,Wunderground v.1.15,2013-09-21 06:30:00,
2013-09-21 00:40:00,65.4,53.7,29.88,North,5,0.0,0.0,66,0.00,,,0.00,Wunderground v.1.15,2013-09-21 06:40:00,
2013-09-21 00:50:00,65.1,53.9,29.88,North,5,1.0,1.0,67,0.00,,,0.00,Wunderground v.1.15,2013-09-21 06:50:00,
2013-09-21 01:00:00,64.8,54.0,29.88,North,5,1.0,1.0,68,0.00,,,0.00,Wunderground v.1.15,2013-09-21 07:00:00,
2013-09-21 01:10:00,64.5,54.1,29.89,North,5,0.0,7.0,69,0.00,,,0.00,Wunderground v.1.15,2013-09-21 07:10:00,
2013-09-21 01:20:00,64.2,54.2,29.89,North,5,0.0,7.0,70,0.00,,,0.00,Wunderground v.1.15,2013-09-21 07:20:00,
2013-09-21 01:30:00,64.1,54.1,29.89,North,5,1.0,1.0,70,0.00,,,0.00,Wunderground v.1.15,2013-09-21 07:30:00,
2013-09-21 01:40:00,63.8,54.2,29.89,North,5,0.0,7.0,71,0.00,,,0.00,Wunderground v.1.15,2013-09-21 07:40:00,
2013-09-21 01:50:00,63.6,54.4,29.89,North,5,1.0,7.0,72,0.00,,,0.00,Wunderground v.1.15,2013-09-21 07:50:00,
2013-09-21 02:00:00,63.5,54.3,29.89,North,5,1.0,7.0,72,0.00,,,0.00,Wunderground v.1.15,2013-09-21 08:00:00,
2013-09-21 02:10:00,63.3,54.5,29.89,North,5,1.0,7.0,73,0.00,,,0.00,Wunderground v.1.15,2013-09-21 08:10:00,
2013-09-21 02:20:00,63.1,54.3,29.89,North,5,1.0,1.0,73,0.00,,,0.00,Wunderground v.1.15,2013-09-21 08:20:00,
2013-09-21 02:30:00,62.9,54.5,29.89,North,5,1.0,7.0,74,0.00,,,0.00,Wunderground v.1.15,2013-09-21 08:30:00,
2013-09-21 02:40:00,62.5,54.1,29.88,North,5,0.0,7.0,74,0.00,,,0.00,Wunderground v.1.15,2013-09-21 08:40:00,
2013-09-21 02:50:00,62.2,54.2,29.88,North,5,0.0,7.0,75,0.00,,,0.00,Wunderground v.1.15,2013-09-21 08:50:00,
2013-09-21 03:00:00,62.0,54.3,29.88,North,5,0.0,7.0,76,0.00,,,0.00,Wunderground v.1.15,2013-09-21 09:00:00,
2013-09-21 03:10:00,61.8,54.2,29.88,North,5,0.0,7.0,76,0.00,,,0.00,Wunderground v.1.15,2013-09-21 09:10:00,
2013-09-21 03:20:00,61.7,54.4,29.88,North,5,1.0,7.0,77,0.00,,,0.00,Wunderground v.1.15,2013-09-21 09:20:00,
2013-09-21 03:30:00,61.5,54.2,29.88,North,5,0.0,7.0,77,0.00,,,0.00,Wunderground v.1.15,2013-09-21 09:30:00,
2013-09-21 03:40:00,61.6,54.3,29.88,North,5,2.0,7.0,77,0.00,,,0.00,Wunderground v.1.15,2013-09-21 09:40:00,
2013-09-21 03:50:00,61.4,54.5,29.88,North,5,2.0,2.0,78,0.00,,,0.00,Wunderground v.1.15,2013-09-21 09:50:00,
2013-09-21 04:00:00,61.1,54.2,29.88,North,5,1.0,1.0,78,0.00,,,0.00,Wunderground v.1.15,2013-09-21 10:00:00,
2013-09-21 04:10:00,61.0,54.4,29.88,North,5,0.0,7.0,79,0.00,,,0.00,Wunderground v.1.15,2013-09-21 10:10:00,
2013-09-21 04:20:00,60.7,54.1,29.88,North,5,0.0,7.0,79,0.00,,,0.00,Wunderground v.1.15,2013-09-21 10:20:00,
2013-09-21 04:30:00,60.4,54.2,29.88,North,5,0.0,7.0,80,0.00,,,0.00,Wunderground v.1.15,2013-09-21 10:30:00,
2013-09-21 04:40:00,60.2,54.3,29.88,North,5,0.0,7.0,81,0.00,,,0.00,Wunderground v.1.15,2013-09-21 10:40:00,
2013-09-21 04:50:00,59.9,54.1,29.89,North,5,0.0,7.0,81,0.00,,,0.00,Wunderground v.1.15,2013-09-21 10:50:00,
2013-09-21 05:00:00,59.8,54.3,29.89,North,5,0.0,7.0,82,0.00,,,0.00,Wunderground v.1.15,2013-09-21 11:00:00,
2013-09-21 05:10:00,59.9,54.4,29.89,North,5,0.0,7.0,82,0.00,,,0.00,Wunderground v.1.15,2013-09-21 11:10:00,
2013-09-21 05:20:00,59.8,54.3,29.89,North,5,0.0,7.0,82,0.00,,,0.00,Wunderground v.1.15,2013-09-21 11:20:00,
2013-09-21 05:30:00,59.3,54.1,29.89,North,5,0.0,7.0,83,0.00,,,0.00,Wunderground v.1.15,2013-09-21 11:30:00,
2013-09-21 05:40:00,59.1,54.3,29.90,North,5,0.0,7.0,84,0.00,,,0.00,Wunderground v.1.15,2013-09-21 11:40:00,
2013-09-21 05:50:00,59.1,53.9,29.90,North,5,0.0,7.0,83,0.00,,,0.00,Wunderground v.1.15,2013-09-21 11:50:00,
2013-09-21 06:00:00,58.9,54.1,29.89,North,5,0.0,7.0,84,0.00,,,0.00,Wunderground v.1.15,2013-09-21 12:00:00,
2013-09-21 06:10:00,59.0,53.8,29.89,North,5,0.0,7.0,83,0.00,,,0.00,Wunderground v.1.15,2013-09-21 12:10:00,
2013-09-21 06:20:00,58.8,53.6,29.90,North,5,0.0,7.0,83,0.00,,,0.00,Wunderground v.1.15,2013-09-21 12:20:00,
2013-09-21 06:30:00,58.3,53.5,29.90,North,5,0.0,7.0,84,0.00,,,0.00,Wunderground v.1.15,2013-09-21 12:30:00,
2013-09-21 06:40:00,57.9,53.4,29.90,North,5,0.0,7.0,85,0.00,,,0.00,Wunderground v.1.15,2013-09-21 12:40:00,
2013-09-21 06:50:00,57.8,53.6,29.90,North,5,0.0,7.0,86,0.00,,,0.00,Wunderground v.1.15,2013-09-21 12:50:00,
2013-09-21 07:00:00,58.1,53.6,29.90,North,5,0.0,7.0,85,0.00,,,0.00,Wunderground v.1.15,2013-09-21 13:00:00,
2013-09-21 07:10:00,58.0,53.5,29.90,North,5,0.0,7.0,85,0.00,,,0.00,Wunderground v.1.15,2013-09-21 13:10:00,
2013-09-21 07:20:00,58.0,53.5,29.91,North,5,0.0,7.0,85,0.00,,,0.00,Wunderground v.1.15,2013-09-21 13:20:00,
2013-09-21 07:30:00,58.5,53.7,29.91,North,5,0.0,7.0,84,0.00,,,0.00,Wunderground v.1.15,2013-09-21 13:30:00,
2013-09-21 07:40:00,59.7,54.2,29.91,North,5,0.0,7.0,82,0.00,,,0.00,Wunderground v.1.15,2013-09-21 13:40:00,
2013-09-21 07:50:00,60.9,54.7,29.91,North,5,0.0,7.0,80,0.00,,,0.00,Wunderground v.1.15,2013-09-21 13:50:00,
2013-09-21 08:00:00,62.4,55.1,29.91,North,5,0.0,7.0,77,0.00,,,0.00,Wunderground v.1.15,2013-09-21 14:00:00,
2013-09-21 08:10:00,63.8,55.0,29.91,North,5,0.0,7.0,73,0.00,,,0.00,Wunderground v.1.15,2013-09-21 14:10:00,
2013-09-21 08:20:00,64.1,54.9,29.91,North,5,0.0,7.0,72,0.00,,,0.00,Wunderground v.1.15,2013-09-21 14:20:00,
2013-09-21 08:30:00,64.6,55.4,29.91,North,5,0.0,7.0,72,0.00,,,0.00,Wunderground v.1.15,2013-09-21 14:30:00,
2013-09-21 08:40:00,64.8,55.6,29.92,North,5,0.0,7.0,72,0.00,,,0.00,Wunderground v.1.15,2013-09-21 14:40:00,
2013-09-21 08:50:00,65.1,55.8,29.92,North,5,0.0,7.0,72,0.00,,,0.00,Wunderground v.1.15,2013-09-21 14:50:00,
2013-09-21 09:00:00,65.8,55.7,29.92,North,5,0.0,7.0,70,0.00,,,0.00,Wunderground v.1.15,2013-09-21 15:00:00,
2013-09-21 09:10:00,66.2,55.3,29.92,North,5,0.0,7.0,68,0.00,,,0.00,Wunderground v.1.15,2013-09-21 15:10:00,
2013-09-21 09:20:00,67.5,55.3,29.92,North,5,0.0,7.0,65,0.00,,,0.00,Wunderground v.1.15,2013-09-21 15:20:00,
2013-09-21 09:30:00,68.0,55.4,29.92,North,5,0.0,7.0,64,0.00,,,0.00,Wunderground v.1.15,2013-09-21 15:30:00,
2013-09-21 09:40:00,68.0,55.4,29.92,North,5,2.0,7.0,64,0.00,,,0.00,Wunderground v.1.15,2013-09-21 15:40:00,
2013-09-21 09:50:00,67.4,54.8,29.92,South,175,5.0,5.0,64,0.00,,,0.00,Wunderground v.1.15,2013-09-21 15:50:00,
2013-09-21 10:00:00,67.8,55.2,29.92,SSE,157,5.0,5.0,64,0.00,,,0.00,Wunderground v.1.15,2013-09-21 16:00:00,
2013-09-21 10:10:00,67.9,55.7,29.92,ESE,115,5.0,5.0,65,0.00,,,0.00,Wunderground v.1.15,2013-09-21 16:10:00,
2013-09-21 10:20:00,68.4,55.7,29.92,SSE,153,4.0,4.0,64,0.00,,,0.00,Wunderground v.1.15,2013-09-21 16:20:00,
2013-09-21 10:30:00,68.9,55.8,29.92,SE,143,4.0,7.0,63,0.00,,,0.00,Wunderground v.1.15,2013-09-21 16:30:00,
2013-09-21 10:40:00,69.3,55.7,29.91,SE,146,5.0,7.0,62,0.00,,,0.00,Wunderground v.1.15,2013-09-21 16:40:00,
2013-09-21 10:50:00,69.0,55.9,29.91,SSW,194,7.0,9.0,63,0.00,,,0.00,Wunderground v.1.15,2013-09-21 16:50:00,
2013-09-21 11:00:00,68.9,55.8,29.91,SSE,163,6.0,8.0,63,0.00,,,0.00,Wunderground v.1.15,2013-09-21 17:00:00,
2013-09-21 11:10:00,69.4,56.3,29.91,South,169,7.0,7.0,63,0.00,,,0.00,Wunderground v.1.15,2013-09-21 17:10:00,
2013-09-21 11:20:00,70.1,56.5,29.90,SE,144,6.0,6.0,62,0.00,,,0.00,Wunderground v.1.15,2013-09-21 17:20:00,
2013-09-21 11:30:00,70.8,56.7,29.90,ESE,116,6.0,6.0,61,0.00,,,0.00,Wunderground v.1.15,2013-09-21 17:30:00,
2013-09-21 11:40:00,70.8,56.2,29.90,South,187,6.0,7.0,60,0.00,,,0.00,Wunderground v.1.15,2013-09-21 17:40:00,
2013-09-21 11:50:00,71.5,56.4,29.89,SE,136,6.0,6.0,59,0.00,,,0.00,Wunderground v.1.15,2013-09-21 17:50:00,
2013-09-21 12:00:00,71.7,56.6,29.89,SSW,204,6.0,6.0,59,0.00,,,0.00,Wunderground v.1.15,2013-09-21 18:00:00,
2013-09-21 12:10:00,72.5,55.9,29.89,SSW,208,5.0,7.0,56,0.00,,,0.00,Wunderground v.1.15,2013-09-21 18:10:00,
2013-09-21 12:20:00,72.6,56.5,29.88,SE,139,7.0,8.0,57,0.00,,,0.00,Wunderground v.1.15,2013-09-21 18:20:00,
2013-09-21 12:30:00,73.2,56.6,29.88,South,175,5.0,7.0,56,0.00,,,0.00,Wunderground v.1.15,2013-09-21 18:30:00,
2013-09-21 12:40:00,73.7,55.5,29.87,South,184,5.0,7.0,53,0.00,,,0.00,Wunderground v.1.15,2013-09-21 18:40:00,
2013-09-21 12:50:00,73.9,56.7,29.87,SW,225,5.0,7.0,55,0.00,,,0.00,Wunderground v.1.15,2013-09-21 18:50:00,
2013-09-21 13:00:00,74.8,56.5,29.86,South,171,5.0,8.0,53,0.00,,,0.00,Wunderground v.1.15,2013-09-21 19:00:00,
2013-09-21 13:10:00,75.1,55.7,29.86,SW,232,3.0,3.0,51,0.00,,,0.00,Wunderground v.1.15,2013-09-21 19:10:00,
2013-09-21 13:20:00,75.3,56.5,29.85,SE,126,4.0,7.0,52,0.00,,,0.00,Wunderground v.1.15,2013-09-21 19:20:00,
2013-09-21 13:30:00,75.8,55.8,29.84,South,179,4.0,7.0,50,0.00,,,0.00,Wunderground v.1.15,2013-09-21 19:30:00,
2013-09-21 13:40:00,76.4,55.3,29.84,SW,234,5.0,7.0,48,0.00,,,0.00,Wunderground v.1.15,2013-09-21 19:40:00,
2013-09-21 13:50:00,76.2,55.6,29.83,SSE,163,5.0,10.0,49,0.00,,,0.00,Wunderground v.1.15,2013-09-21 19:50:00,
2013-09-21 14:00:00,76.8,55.6,29.83,SSE,165,5.0,5.0,48,0.00,,,0.00,Wunderground v.1.15,2013-09-21 20:00:00,
2013-09-21 14:10:00,76.3,56.3,29.82,SW,218,6.0,6.0,50,0.00,,,0.00,Wunderground v.1.15,2013-09-21 20:10:00,
2013-09-21 14:20:00,76.9,53.9,29.82,SSW,205,5.0,8.0,45,0.00,,,0.00,Wunderground v.1.15,2013-09-21 20:20:00,
2013-09-21 14:30:00,77.4,54.4,29.81,SSW,209,6.0,10.0,45,0.00,,,0.00,Wunderground v.1.15,2013-09-21 20:30:00,
2013-09-21 14:40:00,77.8,53.5,29.81,SSE,147,8.0,8.0,43,0.00,,,0.00,Wunderground v.1.15,2013-09-21 20:40:00,
2013-09-21 14:50:00,77.7,53.4,29.80,SSE,164,6.0,6.0,43,0.00,,,0.00,Wunderground v.1.15,2013-09-21 20:50:00,
2013-09-21 15:00:00,77.8,52.9,29.80,SSE,165,6.0,7.0,42,0.00,,,0.00,Wunderground v.1.15,2013-09-21 21:00:00,
2013-09-21 15:10:00,78.3,52.7,29.79,WSW,238,6.0,6.0,41,0.00,,,0.00,Wunderground v.1.15,2013-09-21 21:10:00,
2013-09-21 15:20:00,78.5,54.1,29.78,South,189,6.0,6.0,43,0.00,,,0.00,Wunderground v.1.15,2013-09-21 21:20:00,
2013-09-21 15:30:00,79.1,52.7,29.78,SW,224,6.0,9.0,40,0.00,,,0.00,Wunderground v.1.15,2013-09-21 21:30:00,
2013-09-21 15:40:00,78.6,52.9,29.77,SSW,209,8.0,8.0,41,0.00,,,0.00,Wunderground v.1.15,2013-09-21 21:40:00,
2013-09-21 15:50:00,79.6,53.8,29.77,SSW,201,5.0,7.0,41,0.00,,,0.00,Wunderground v.1.15,2013-09-21 21:50:00,
2013-09-21 16:00:00,79.5,50.9,29.76,SSW,207,6.0,9.0,37,0.00,,,0.00,Wunderground v.1.15,2013-09-21 22:00:00,
2013-09-21 16:10:00,79.8,51.9,29.76,SSW,202,7.0,7.0,38,0.00,,,0.00,Wunderground v.1.15,2013-09-21 22:10:00,
2013-09-21 16:20:00,79.8,51.2,29.75,SSW,202,6.0,6.0,37,0.00,,,0.00,Wunderground v.1.15,2013-09-21 22:20:00,
2013-09-21 16:30:00,79.8,51.2,29.75,South,185,6.0,8.0,37,0.00,,,0.00,Wunderground v.1.15,2013-09-21 22:30:00,
2013-09-21 16:40:00,79.6,51.8,29.75,SW,214,6.0,6.0,38,0.00,,,0.00,Wunderground v.1.15,2013-09-21 22:40:00,
2013-09-21 16:50:00,80.0,52.1,29.75,SW,223,6.0,7.0,38,0.00,,,0.00,Wunderground v.1.15,2013-09-21 22:50:00,
2013-09-21 17:00:00,79.5,51.7,29.74,SSE,165,7.0,8.0,38,0.00,,,0.00,Wunderground v.1.15,2013-09-21 23:00:00,
2013-09-21 17:10:00,79.5,51.7,29.74,SW,221,7.0,7.0,38,0.00,,,0.00,Wunderground v.1.15,2013-09-21 23:10:00,
2013-09-21 17:20:00,79.1,52.7,29.74,SSW,206,7.0,7.0,40,0.00,,,0.00,Wunderground v.1.15,2013-09-21 23:20:00,
2013-09-21 17:30:00,78.7,53.0,29.74,SW,220,7.0,7.0,41,0.00,,,0.00,Wunderground v.1.15,2013-09-21 23:30:00,
2013-09-21 17:40:00,78.7,53.0,29.73,South,190,7.0,7.0,41,0.00,,,0.00,Wunderground v.1.15,2013-09-21 23:40:00,
2013-09-21 17:50:00,78.6,51.6,29.73,SSE,164,7.0,10.0,39,0.00,,,0.00,Wunderground v.1.15,2013-09-21 23:50:00,
2013-09-21 18:00:00,78.4,52.1,29.73,South,173,9.0,9.0,40,0.00,,,0.00,Wunderground v.1.15,2013-09-22 00:00:00,
2013-09-21 18:10:00,78.3,51.3,29.73,South,184,8.0,10.0,39,0.00,,,0.00,Wunderground v.1.15,2013-09-22 00:10:00,
2013-09-21 18:20:00,78.0,50.3,29.73,South,184,8.0,13.0,38,0.00,,,0.00,Wunderground v.1.15,2013-09-22 00:20:00,
2013-09-21 18:30:00,77.6,50.7,29.73,SSW,194,7.0,7.0,39,0.00,,,0.00,Wunderground v.1.15,2013-09-22 00:30:00,
2013-09-21 18:40:00,77.1,50.2,29.74,SSW,213,8.0,9.0,39,0.00,,,0.00,Wunderground v.1.15,2013-09-22 00:40:00,
2013-09-21 18:50:00,76.5,50.4,29.73,SSW,200,8.0,8.0,40,0.00,,,0.00,Wunderground v.1.15,2013-09-22 00:50:00,
2013-09-21 19:00:00,75.8,50.4,29.74,South,176,8.0,12.0,41,0.00,,,0.00,Wunderground v.1.15,2013-09-22 01:00:00,
2013-09-21 19:10:00,75.4,50.7,29.73,South,175,8.0,8.0,42,0.00,,,0.00,Wunderground v.1.15,2013-09-22 01:10:00,
2013-09-21 19:20:00,75.0,51.0,29.73,South,186,7.0,9.0,43,0.00,,,0.00,Wunderground v.1.15,2013-09-22 01:20:00,
2013-09-21 19:30:00,74.6,51.2,29.73,SSW,200,8.0,8.0,44,0.00,,,0.00,Wunderground v.1.15,2013-09-22 01:30:00,
2013-09-21 19:40:00,74.2,51.5,29.74,South,169,6.0,9.0,45,0.00,,,0.00,Wunderground v.1.15,2013-09-22 01:40:00,
2013-09-21 19:50:00,73.6,51.5,29.74,South,188,8.0,8.0,46,0.00,,,0.00,Wunderground v.1.15,2013-09-22 01:50:00,
2013-09-21 20:00:00,73.3,51.8,29.74,South,170,7.0,7.0,47,0.00,,,0.00,Wunderground v.1.15,2013-09-22 02:00:00,
2013-09-21 20:10:00,72.9,52.1,29.74,South,171,6.0,7.0,48,0.00,,,0.00,Wunderground v.1.15,2013-09-22 02:10:00,
2013-09-21 20:20:00,72.5,51.7,29.74,SSE,163,6.0,6.0,48,0.00,,,0.00,Wunderground v.1.15,2013-09-22 02:20:00,
2013-09-21 20:30:00,72.3,51.5,29.75,SSE,152,6.0,11.0,48,0.00,,,0.00,Wunderground v.1.15,2013-09-22 02:30:00,
2013-09-21 20:40:00,72.0,51.8,29.75,SSE,164,5.0,10.0,49,0.00,,,0.00,Wunderground v.1.15,2013-09-22 02:40:00,
2013-09-21 20:50:00,71.8,51.6,29.75,SSE,165,5.0,5.0,49,0.00,,,0.00,Wunderground v.1.15,2013-09-22 02:50:00,
2013-09-21 21:00:00,71.1,51.5,29.76,SE,128,2.0,2.0,50,0.00,,,0.00,Wunderground v.1.15,2013-09-22 03:00:00,
2013-09-21 21:10:00,70.5,51.5,29.76,ESE,113,2.0,7.0,51,0.00,,,0.00,Wunderground v.1.15,2013-09-22 03:10:00,
2013-09-21 21:20:00,70.1,51.1,29.76,ESE,120,2.0,2.0,51,0.00,,,0.00,Wunderground v.1.15,2013-09-22 03:20:00,
2013-09-21 21:30:00,69.9,51.5,29.76,ESE,106,2.0,2.0,52,0.00,,,0.00,Wunderground v.1.15,2013-09-22 03:30:00,
2013-09-21 21:40:00,69.4,51.0,29.76,ESE,115,2.0,7.0,52,0.00,,,0.00,Wunderground v.1.15,2013-09-22 03:40:00,
2013-09-21 21:50:00,69.4,51.0,29.77,SSE,154,3.0,7.0,52,0.00,,,0.00,Wunderground v.1.15,2013-09-22 03:50:00,
2013-09-21 22:00:00,69.3,50.9,29.77,SE,142,4.0,7.0,52,0.00,,,0.00,Wunderground v.1.15,2013-09-22 04:00:00,
2013-09-21 22:10:00,69.1,51.2,29.77,ESE,123,3.0,3.0,53,0.00,,,0.00,Wunderground v.1.15,2013-09-22 04:10:00,
2013-09-21 22:20:00,68.6,51.3,29.77,ESE,117,2.0,2.0,54,0.00,,,0.00,Wunderground v.1.15,2013-09-22 04:20:00,
2013-09-21 22:30:00,68.2,51.4,29.77,ESE,117,1.0,7.0,55,0.00,,,0.00,Wunderground v.1.15,2013-09-22 04:30:00,
2013-09-21 22:40:00,68.0,51.7,29.77,ESE,117,1.0,7.0,56,0.00,,,0.00,Wunderground v.1.15,2013-09-22 04:40:00,
2013-09-21 22:50:00,68.0,52.2,29.77,ESE,118,2.0,2.0,57,0.00,,,0.00,Wunderground v.1.15,2013-09-22 04:50:00,
2013-09-21 23:00:00,68.0,52.7,29.77,ESE,115,2.0,2.0,58,0.00,,,0.00,Wunderground v.1.15,2013-09-22 05:00:00,
2013-09-21 23:10:00,67.8,53.4,29.77,ESE,115,1.0,7.0,60,0.00,,,0.00,Wunderground v.1.15,2013-09-22 05:10:00,
2013-09-21 23:20:00,67.7,53.3,29.77,ESE,116,1.0,1.0,60,0.00,,,0.00,Wunderground v.1.15,2013-09-22 05:20:00,
2013-09-21 23:30:00,67.7,53.8,29.77,ESE,118,2.0,7.0,61,0.00,,,0.00,Wunderground v.1.15,2013-09-22 05:30:00,
2013-09-21 23:40:00,67.6,53.7,29.77,ESE,113,1.0,7.0,61,0.00,,,0.00,Wunderground v.1.15,2013-09-22 05:40:00,
2013-09-21 23:50:00,67.3,53.4,29.77,ESE,109,1.0,1.0,61,0.00,,,0.00,Wunderground v.1.15,2013-09-22 05:50:00,